Location: Unspecified
(40.4667°N, 0.0000°E)
Time: 00:28:39
(UTC+00:00)

ISS - Pass Details

Date: 25 May 2019
Orbit: 407 x 418 km, 51.6° (Epoch: 27 June)

Event Time Altitude Azimuth Distance (km) Brightness Sun altitude
Rises 22:55:50 0° 312° (NW) 2,364 0.9 -26.9°
Reaches altitude 10° 22:58:14 10° 328° (NNW) 1,500 0.0 -27.0°
Enters shadow 23:00:28 21° 8° (N) 991 -1.3 -27.1°
